Regional Weather Roundup
Issued by NWS

Home | Current Version | Previous Version | Graphics & Text | Print | Product List | Glossary On
Versions: 1 2 3 4 5 6 7 8 9 10 11 12 13 14 15 16 17 18 19 20 21 22 23 24 25 26 27 28 29 30 31 32 33 34 35 36 37 38 39 40 41 42 43 44 45 46 47 48 49 50
000
ASUS43 KLSX 271359
RWRMO

WEATHER SUMMARY FOR MISSOURI
NATIONAL WEATHER SERVICE SPRINGFIELD MO
900 AM CDT SAT MAY 27 2017

NOTE: "FAIR" INDICATES FEW OR NO CLOUDS BELOW 12,000 FEET WITH NO
       SIGNIFICANT WEATHER AND/OR OBSTRUCTIONS TO VISIBILITY.
       CURRENT SKY AND/OR WEATHER CONDITIONS ARE NOT AVAILABLE FOR
       CHILLICOTHE AND FARMINGTON.

MOZ001>031-035>038-043-044-053-054-271500-
...NORTHERN AND WESTERN MISSOURI...

CITY           SKY/WX    TMP DP  RH WIND       PRES   REMARKS
KANSAS CTY INT RAIN      61  59  93 NE9       29.92R FOG
KANSAS C DTWN  CLOUDY    69  59  70 N16G24    29.90R
LEE`S SUMMIT   CLOUDY    71  68  90 N9        29.92R
ST JOSEPH      TSTM      62  60  93 VRB5      29.95F FOG
CHILLICOTHE      N/A     71  65  81 VRB3      29.92R
KIRKSVILLE     MOSUNNY   70  62  76 E8        29.89S

$$
MOZ066>068-077>081-088>096-101>105-271500-
...SOUTHWEST MISSOURI...

CITY           SKY/WX    TMP DP  RH WIND       PRES   REMARKS
SPRINGFIELD    MOSUNNY   75  68  78 S9        29.84S
JOPLIN         CLOUDY    78  74  87 SW7       29.84R
BRANSON        MOSUNNY   72  66  83 SE8       29.88S

$$
MOZ032>034-039>042-045>050-055>058-069>072-271500-
...CENTRAL MISSOURI...

CITY           SKY/WX    TMP DP  RH WIND       PRES   REMARKS
COLUMBIA       SUNNY     75  64  68 E9        29.86F
JEFFERSON CITY SUNNY     77  65  66 SE8       29.85F
ROLLA          PTSUNNY   72  69  90 E10       29.87S
SEDALIA        MOSUNNY   75  72  90 SE10      29.87R
WARRENSBURG    PTSUNNY   72  66  83 NW5       29.90R
OSAGE BEACH    PTSUNNY   74  70  87 SE8       29.86S

$$
MOZ051-052-059>065-271500-
...EAST CENTRAL MISSOURI...

CITY           SKY/WX    TMP DP  RH WIND       PRES   REMARKS
ST LOUIS INTL  MOSUNNY   76  64  66 VRB5      29.88R
SPIRIT OF STL  SUNNY     74  67  78 E6        29.87R
ST CHARLES     SUNNY     71  66  84 N7        29.88R

$$
MOZ072>076-082>087-097>100-106>115-271500-
...SOUTH CENTRAL AND SOUTHEAST MISSOURI...

CITY           SKY/WX    TMP DP  RH WIND       PRES   REMARKS
CAPE GIRARDEAU PTSUNNY   75  70  84 S6        29.87R
FARMINGTON     PTSUNNY   73  69  87 E5        29.89S
POPLAR BLUFF   SUNNY     74  68  81 SW7       29.87R
WEST PLAINS    MOSUNNY   73  66  78 VRB5      29.90R

$$




USA.gov is the U.S. government's official web portal to all federal, state and local government web resources and services.